GFSSE_sfc_temp_231.txt.gz
Temp
69 73 74 76 76 76 76 76 76 75 75 76 75 75 75 75 75 76 76 76 76 76 76 75 74 74 74 73 73 73 73 72 72 72 72 73 75 75 74 72 72 75 73
71 73 72 75 76 76 76 75 74 75 75 76 75 75 75 75 75 76 76 75 75 75 75 74 74 73 73 73 73 73 72 72 72 71 71 71 71 75 75 73 73 74 73
70 73 75 73 74 75 75 75 75 75 76 76 75 75 75 75 75 75 75 74 74 74 74 74 74 73 73 72 72 72 72 71 71 70 69 73 73 74 75 74 74 73 73
71 72 74 72 74 74 75 75 75 75 76 76 75 75 75 75 75 75 74 74 74 74 74 74 74 73 72 72 72 72 72 70 69 67 72 72 73 72 76 74 73 73 73
70 72 73 72 74 74 74 74 74 74 75 75 75 75 75 74 74 74 73 73 73 74 74 73 72 72 72 72 72 71 71 70 67 69 71 71 72 72 75 75 74 73 72
70 72 71 72 74 74 74 74 74 74 75 74 74 75 74 74 73 73 73 72 72 72 73 72 72 72 71 71 71 71 71 70 67 72 71 71 71 70 73 75 74 73 72
69 71 72 71 72 73 74 74 73 74 74 74 74 73 74 73 72 72 72 72 72 72 72 72 72 71 71 71 71 71 70 68 71 71 71 71 71 71 73 74 75 74 73
69 69 71 68 69 71 72 73 73 73 73 73 73 73 72 72 72 72 72 71 71 71 71 71 71 71 71 71 71 70 68 66 70 71 71 71 69 72 74 74 74 74 74
70 69 69 70 69 67 68 69 70 71 71 71 72 71 71 70 71 70 70 71 71 71 71 71 71 71 71 70 70 68 65 65 72 71 70 72 68 73 75 75 74 73 73
68 68 68 68 69 69 70 65 67 68 69 69 68 67 66 67 67 67 66 68 70 70 70 70 70 70 70 68 67 65 64 64 71 70 71 71 69 74 75 74 74 72 72
65 66 67 66 66 67 68 65 64 65 65 65 65 63 63 68 68 68 64 66 68 68 69 69 69 68 66 65 65 63 63 70 70 70 70 65 70 74 75 73 72 72 72
64 64 66 65 65 65 67 65 67 67 68 67 67 67 67 67 68 67 61 61 63 62 66 67 67 65 66 70 69 65 69 68 68 68 68 65 71 74 73 72 72 71 71
66 65 64 64 65 65 65 64 65 65 66 66 66 67 67 67 67 68 68 69 69 61 69 69 68 68 66 67 67 67 67 66 66 65 63 65 71 72 72 71 71 71 71
64 65 64 65 64 64 64 64 65 65 65 66 66 66 66 67 67 67 68 68 69 67 67 67 66 65 65 64 64 64 63 64 64 63 62 60 66 69 70 70 70 70 70
65 64 64 64 64 63 63 64 64 65 65 66 66 66 66 66 66 67 68 68 65 65 66 64 63 63 62 62 62 62 61 61 61 62 60 57 62 65 68 69 69 67 67
66 64 64 63 64 63 62 63 65 65 66 66 66 67 66 66 66 67 66 63 63 63 61 60 61 60 59 60 60 60 59 59 59 58 58 57 58 62 65 64 64 64 64
65 64 62 63 64 63 63 64 64 65 65 65 65 66 66 67 65 64 62 60 59 59 60 60 60 59 58 59 58 58 58 57 57 56 56 56 56 58 59 59 59 60 61
64 62 63 66 63 63 63 64 65 64 63 62 62 63 63 63 63 61 59 57 58 57 60 58 57 57 56 57 57 56 56 56 54 53 53 53 53 55 54 53 54 55 57
63 63 63 64 63 63 64 63 61 60 59 59 59 59 60 60 60 58 56 56 56 55 55 56 54 53 53 55 55 53 53 51 52 52 50 50 50 51 50 49 48 50 52
63 64 64 64 63 63 61 58 57 56 54 55 54 55 56 57 56 55 54 53 55 53 53 54 52 52 51 52 55 52 51 50 51 48 48 50 49 48 48 46 45 45 47
63 63 64 62 63 61 58 56 55 51 51 51 52 52 53 54 54 54 52 52 52 51 49 50 50 50 46 47 51 49 49 50 49 48 49 48 47 47 46 45 44 43 43
62 63 64 62 62 61 61 58 55 52 50 50 50 50 51 51 52 52 51 50 49 48 47 47 47 48 46 44 45 48 46 46 47 47 47 47 45 46 44 43 42 41 40
61 63 64 62 62 62 56 53 51 50 49 48 48 47 47 48 48 48 48 47 45 46 44 44 44 45 44 43 43 45 45 44 43 46 44 44 44 43 43 42 41 40 39
56 59 60 61 59 56 55 52 51 51 47 48 46 45 45 45 45 45 44 44 44 43 42 43 43 43 45 41 43 43 41 41 40 41 44 42 44 42 41 41 40 39 38
51 51 52 53 54 54 53 53 51 47 46 46 44 43 42 41 41 42 42 42 42 41 40 41 40 39 40 40 39 39 39 39 38 37 39 39 42 42 40 39 38 38 37
48 49 48 48 47 48 49 48 47 45 43 42 41 40 38 39 39 40 41 41 40 40 39 38 38 38 38 37 37 37 36 35 34 35 35 34 34 39 40 38 37 36 36

GFSSE_sfc_temp_234.txt.gz
Temp
78 82 74 76 76 76 76 76 76 75 76 75 75 76 75 76 76 76 76 76 76 75 76 75 75 74 74 74 73 73 73 73 72 72 72 73 75 75 74 73 73 78 73
81 82 73 75 76 76 76 76 75 75 76 75 75 75 75 75 75 75 75 75 75 75 75 74 74 73 73 73 73 73 72 72 71 71 71 74 74 75 75 73 73 76 73
80 82 78 74 75 75 75 75 75 75 76 75 75 75 75 75 75 75 74 75 74 75 74 74 74 73 73 72 72 72 72 71 70 69 70 79 79 73 75 74 73 73 73
81 81 81 72 74 75 75 74 74 75 75 75 75 75 75 75 75 75 75 74 74 74 75 74 73 73 72 72 72 72 71 70 69 69 79 79 79 73 75 75 74 73 73
80 81 80 72 74 74 74 74 74 75 75 75 75 75 75 75 75 74 73 73 74 74 74 73 73 72 72 72 72 72 71 70 68 74 78 78 79 75 74 75 75 74 72
80 81 73 72 74 74 74 74 74 75 75 75 75 75 74 74 73 73 73 73 73 73 73 73 72 72 72 72 72 71 71 70 69 79 79 77 78 71 73 74 74 73 73
79 80 78 72 73 74 74 74 74 74 74 74 75 74 74 73 73 72 72 72 72 72 72 72 72 71 71 71 71 71 69 68 76 78 78 78 77 71 74 74 74 74 74
79 79 77 69 70 72 73 73 73 74 73 74 73 73 73 72 72 72 72 72 72 72 72 72 71 71 71 71 70 69 67 66 76 78 77 78 70 72 75 75 74 73 72
79 78 78 76 72 68 69 70 71 72 72 72 72 72 71 71 71 71 71 71 71 71 71 71 71 70 70 70 69 67 65 65 79 77 77 78 68 73 75 73 73 72 72
75 78 78 76 75 74 72 66 67 68 69 69 69 67 66 67 67 67 67 69 70 70 70 70 70 69 69 68 67 65 65 67 77 77 77 75 68 74 74 73 72 72 72
71 76 77 77 77 77 76 70 65 65 66 65 66 63 65 76 75 73 65 67 68 68 69 69 68 67 67 66 65 64 66 77 77 76 76 65 69 73 73 72 71 71 71
67 73 76 76 76 76 76 74 76 74 75 75 74 73 76 75 76 75 65 62 63 63 67 68 67 67 70 77 76 70 76 75 74 73 71 68 72 72 72 72 71 71 71
70 70 75 75 75 75 75 75 75 75 75 75 74 74 75 75 75 76 77 77 77 64 78 75 75 75 72 74 74 74 73 73 72 71 64 64 70 71 71 71 71 70 68
67 69 73 75 74 74 75 75 75 74 74 74 74 74 74 75 74 75 77 76 76 74 74 74 74 71 71 71 70 70 70 71 70 69 63 59 66 69 70 68 68 68 67
67 67 69 74 74 74 73 75 75 75 74 75 75 74 76 75 74 75 75 75 71 68 71 71 72 70 69 69 69 68 67 67 67 66 64 56 63 65 66 66 66 66 66
68 67 69 72 73 73 73 73 74 75 75 75 75 75 75 75 72 74 73 71 67 67 65 69 70 68 68 68 66 66 65 65 65 64 65 61 58 59 61 62 63 64 64
70 68 66 70 73 72 72 73 74 74 74 73 74 73 74 71 72 68 70 65 63 64 67 70 68 68 68 66 64 64 63 63 63 61 62 62 58 54 55 57 59 60 61
70 67 66 68 71 72 72 72 73 72 72 69 70 72 70 69 66 63 61 60 61 64 67 66 66 64 64 64 63 61 61 57 55 55 56 58 59 58 52 52 53 55 57
69 67 65 69 70 70 71 72 70 68 66 63 63 65 65 63 64 64 60 60 62 63 64 64 61 62 61 60 59 54 52 52 53 54 55 56 55 55 55 49 48 49 51
68 68 68 71 71 70 69 67 63 59 58 59 58 60 64 63 62 59 59 61 61 62 61 60 58 56 54 57 55 51 51 51 54 54 56 55 54 53 52 51 50 49 47
69 69 70 70 70 68 66 61 58 55 56 54 54 55 56 58 58 58 57 59 59 58 55 54 52 49 47 48 50 50 53 55 55 55 56 55 52 51 50 49 49 48 48
68 69 70 69 68 67 67 65 63 56 54 53 52 52 53 54 55 54 54 53 51 50 48 48 49 48 45 46 48 55 51 51 53 53 54 52 51 51 49 48 47 46 46
68 68 69 69 68 66 64 55 53 53 52 50 51 49 49 51 50 50 49 47 46 46 45 45 45 47 44 49 51 53 52 52 51 51 50 51 50 49 48 47 46 44 44
67 70 70 69 68 66 58 55 53 56 53 51 49 47 47 48 47 47 46 44 44 44 44 45 47 50 53 49 50 49 48 49 49 47 50 49 50 48 47 46 45 44 43
68 67 69 67 64 60 59 58 56 55 50 48 45 43 42 42 43 42 43 43 42 42 43 46 47 46 47 47 46 46 47 47 47 46 47 47 50 48 46 45 44 43 43
60 60 58 59 57 56 55 53 50 48 45 43 42 40 39 39 38 39 40 41 43 44 44 45 45 44 44 44 44 43 42 42 41 43 44 43 40 44 46 45 43 42 42

GFSSE_sfc_temp_237.txt.gz
Temp
83 81 74 76 76 76 76 76 75 75 75 75 75 75 75 76 76 75 76 76 76 75 76 75 75 74 74 74 73 73 73 72 72 72 73 74 75 75 74 73 73 76 73
85 82 73 75 76 76 76 76 75 75 75 75 75 75 76 76 75 75 75 75 75 75 75 74 74 74 73 73 73 73 72 72 71 71 72 74 73 75 74 73 73 74 73
84 82 78 74 75 75 75 75 75 75 75 75 75 75 76 75 75 74 75 75 75 74 75 74 74 73 73 72 72 72 72 71 70 70 72 79 78 74 75 74 74 74 73
85 83 81 72 75 75 75 74 74 75 75 75 75 75 75 75 75 75 74 74 74 75 75 74 73 73 72 72 72 72 71 70 70 70 79 80 80 73 75 75 75 74 73
84 84 81 72 74 74 74 74 74 75 75 75 75 75 75 75 75 74 74 74 74 74 74 74 73 73 72 72 72 72 71 71 70 73 79 77 79 75 74 74 75 74 72
84 85 72 72 74 74 74 74 74 74 74 75 75 75 75 74 73 73 73 73 73 73 73 73 72 72 72 72 71 71 71 70 70 80 79 77 77 73 74 74 74 74 73
84 84 79 71 73 74 74 74 74 74 74 74 74 74 74 73 73 72 72 72 72 72 72 72 72 72 71 71 71 70 69 69 76 77 76 76 75 72 75 75 74 73 72
83 82 80 70 70 72 73 73 73 73 73 74 74 74 74 72 72 72 72 72 72 72 72 72 71 71 71 70 70 69 67 67 77 78 77 78 70 73 74 73 73 72 72
84 81 77 78 73 67 69 70 71 72 72 72 72 72 71 71 71 71 71 71 71 71 71 71 70 70 70 69 68 67 66 67 74 78 78 76 68 74 74 73 72 72 71
82 82 77 77 77 77 74 66 67 69 70 70 69 68 67 68 68 67 68 70 71 70 70 70 69 69 69 68 67 66 66 67 78 77 77 72 68 73 73 72 72 71 71
79 81 79 76 76 76 72 66 65 66 66 66 66 64 65 76 74 70 66 67 69 68 69 69 69 69 68 66 66 66 65 76 76 74 71 68 71 73 72 72 72 71 70
73 78 81 79 73 72 74 70 74 74 74 75 74 72 77 77 77 76 66 64 65 66 68 69 69 68 70 77 76 70 75 75 73 68 64 67 71 72 72 71 70 69 68
70 78 79 79 79 77 77 76 77 75 76 76 75 75 77 77 74 75 75 73 74 63 72 72 75 74 72 73 73 73 74 73 71 66 61 62 70 71 70 68 68 68 67
72 74 78 79 78 77 77 77 77 76 76 75 75 76 75 75 75 76 75 75 75 76 75 75 73 71 72 72 71 70 70 70 68 66 61 60 65 67 68 67 67 67 66
73 69 75 77 77 77 76 77 77 76 75 77 76 76 77 76 75 76 72 73 74 72 72 72 72 70 70 69 69 68 67 66 66 65 59 57 60 63 65 66 66 65 65
72 69 71 74 76 77 76 76 76 77 77 77 76 76 77 77 75 72 73 72 71 70 69 71 70 69 69 68 66 66 65 65 65 64 60 55 56 58 60 62 63 63 63
75 70 68 73 76 75 75 75 76 76 75 74 73 76 76 77 74 73 69 68 66 66 70 70 69 69 67 66 63 62 61 60 59 58 60 58 54 53 55 57 58 59 60
74 69 68 72 73 74 75 74 75 76 73 72 73 74 73 70 70 67 64 63 64 67 68 67 67 65 66 65 61 59 55 55 54 55 57 58 57 55 51 51 53 55 56
74 72 67 68 71 73 74 74 74 69 67 71 71 72 70 69 68 64 63 63 65 66 66 66 63 65 61 57 54 52 51 51 54 57 56 55 54 54 53 51 49 50 52
74 73 68 68 70 72 73 72 66 66 67 65 63 66 68 66 65 62 62 62 64 63 62 60 57 54 52 53 53 50 50 53 55 56 55 55 53 52 51 50 49 49 48
72 71 67 66 69 70 70 66 63 60 61 59 57 59 61 63 62 61 61 61 61 58 57 57 52 50 48 50 48 49 51 55 56 56 56 54 52 51 50 49 47 47 48
68 67 67 67 69 68 70 67 64 61 60 58 55 54 55 55 57 56 56 55 54 51 49 48 49 47 46 49 49 50 48 50 53 54 54 53 51 51 49 47 46 45 45
67 67 69 68 69 68 69 67 61 56 55 53 52 51 51 51 51 51 50 49 47 47 45 45 47 48 44 51 52 50 51 50 48 51 50 51 50 49 48 47 46 45 44
68 70 71 70 69 68 67 60 56 58 55 56 52 50 48 48 47 47 47 46 45 45 44 46 47 49 53 49 50 51 49 49 48 44 48 48 50 48 47 46 45 44 43
68 68 70 70 68 67 62 61 59 60 55 52 48 43 42 42 43 43 43 42 43 43 44 45 46 47 47 46 46 47 47 48 47 46 45 45 48 48 46 45 44 42 42
68 68 68 68 66 63 61 60 59 51 48 45 42 40 39 38 38 39 40 41 42 42 42 44 45 44 44 44 44 43 42 41 40 42 42 42 41 45 45 44 42 41 41

GFSSE_sfc_temp_240.txt.gz
Temp
74 73 74 76 76 76 76 76 76 76 75 75 76 75 76 76 76 76 76 75 75 76 75 75 75 75 74 74 73 73 73 72 72 73 74 75 76 75 74 73 73 72 73
76 75 74 75 76 76 76 76 75 75 75 76 75 76 76 76 76 75 75 75 75 75 75 75 74 74 74 73 73 72 72 72 71 72 72 74 74 75 75 73 73 72 74
75 76 75 74 75 75 75 75 75 75 75 75 75 76 76 76 75 75 75 75 74 75 75 75 74 74 73 72 72 72 72 71 71 71 71 69 69 75 75 75 74 74 74
78 75 75 72 75 75 75 74 74 75 75 75 75 76 75 75 75 74 75 75 75 75 75 74 73 73 72 72 72 72 72 71 71 70 69 73 73 75 75 75 75 74 73
78 77 75 72 74 74 74 74 74 75 75 75 75 75 75 75 74 74 75 74 74 75 74 74 73 73 72 72 72 72 71 71 70 70 70 69 68 74 75 74 74 74 72
78 78 70 72 74 74 74 74 74 74 74 75 75 75 76 75 73 73 73 73 73 74 74 73 73 72 72 72 71 71 71 71 70 73 73 73 68 74 75 75 73 72 72
77 73 72 72 73 73 74 74 74 74 74 74 75 75 74 73 72 72 72 72 72 73 73 72 72 71 71 71 70 70 69 68 69 72 73 69 67 74 74 74 73 73 72
77 74 72 69 70 71 73 73 73 73 74 73 74 74 73 72 72 72 72 72 72 72 72 72 71 71 70 70 69 69 68 67 71 70 70 67 69 74 74 73 72 72 71
77 75 73 71 70 68 69 70 71 72 72 72 73 73 71 71 71 71 71 71 72 71 71 71 70 70 70 69 68 67 66 66 68 69 72 65 69 73 73 73 72 71 71
74 72 73 73 71 70 68 67 68 69 70 70 69 68 67 67 67 67 67 69 71 70 70 70 69 69 69 68 68 67 65 65 67 65 65 65 71 73 73 72 71 71 70
73 72 73 73 71 72 70 65 65 66 66 65 65 64 63 66 66 65 65 67 69 69 69 69 69 69 68 66 67 67 66 67 64 64 63 67 71 73 72 71 70 69 68
68 72 71 73 72 71 71 68 68 68 66 66 65 63 66 67 66 69 62 64 66 66 68 69 69 68 66 64 64 66 65 64 61 63 63 68 71 71 70 69 69 68 67
67 70 72 70 71 69 68 67 67 67 65 65 65 65 66 67 65 64 62 62 61 60 67 67 66 65 64 63 63 63 64 63 61 60 60 65 69 69 69 68 67 67 66
66 69 71 72 70 70 69 68 70 69 65 64 65 67 65 64 64 65 68 67 65 66 67 64 62 63 63 64 63 62 61 61 58 57 57 60 65 67 67 67 67 66 65
66 67 70 70 71 72 71 71 69 66 66 66 66 67 67 65 64 69 68 68 67 64 62 62 61 61 61 61 61 60 59 59 56 55 55 56 60 63 65 65 66 65 65
68 68 67 73 71 69 67 67 67 66 67 66 66 66 68 67 66 68 67 66 62 61 61 60 60 59 58 59 58 58 56 56 57 54 53 53 56 58 61 62 63 63 63
71 69 68 71 74 69 67 67 66 66 68 68 70 68 68 70 68 67 65 60 58 59 61 60 60 59 58 59 55 54 53 53 54 55 54 51 49 53 55 57 59 59 60
71 67 70 71 72 69 67 66 67 67 68 67 69 69 67 65 65 60 60 58 58 59 58 57 57 57 55 53 52 52 52 53 54 54 54 53 49 48 50 53 54 55 56
72 67 67 69 70 69 67 67 66 65 63 65 67 66 65 63 61 58 57 59 60 57 56 57 53 54 51 50 51 50 50 51 53 54 52 51 48 46 45 51 50 51 52
72 68 66 68 69 70 67 65 62 61 60 62 60 60 61 60 59 56 56 56 57 54 52 52 50 51 51 51 52 50 50 52 52 51 47 49 46 45 43 43 40 43 49
71 69 66 66 67 69 67 60 58 56 57 56 53 55 56 57 57 55 53 54 52 51 51 52 50 49 47 49 47 48 50 52 49 47 45 44 44 43 42 40 39 38 40
68 69 65 65 67 68 68 62 58 57 56 51 50 51 52 53 53 53 52 51 51 49 48 49 49 46 46 48 47 47 43 43 45 47 44 45 42 42 41 41 39 39 36
67 68 65 65 66 68 67 62 56 54 52 48 47 47 49 50 49 49 49 48 47 47 45 46 48 47 44 47 47 46 42 39 41 45 42 42 41 40 39 40 40 39 38
66 68 65 66 66 67 65 59 54 53 50 49 47 46 44 45 46 46 46 46 45 45 45 46 47 47 49 44 45 48 44 42 38 36 42 41 41 42 39 39 37 38 37
65 66 66 64 66 66 64 57 55 53 51 48 44 42 40 41 42 43 43 43 44 44 44 44 43 43 43 42 41 42 41 39 39 36 33 36 39 40 40 38 36 35 37
65 65 65 64 64 64 59 57 57 50 46 43 41 39 38 38 39 40 41 41 41 41 41 41 41 41 41 40 39 38 36 36 33 34 32 33 32 36 37 37 35 34 34

GFSSE_sfc_temp_246.txt.gz
Temp
66 71 75 76 77 76 76 76 75 75 75 76 76 76 76 75 76 76 75 75 74 75 75 75 75 74 74 74 73 73 73 73 72 72 74 75 75 75 74 73 72 70 74
70 73 74 75 76 76 76 75 75 75 75 76 75 76 76 76 76 74 76 75 76 74 75 76 74 74 73 73 73 73 73 72 72 71 72 71 75 75 74 73 73 72 74
70 73 74 74 75 75 75 75 74 75 75 76 75 76 75 75 75 75 75 75 76 76 75 75 74 73 73 73 73 73 73 72 72 71 71 65 68 75 75 74 74 74 73
72 73 73 73 74 75 74 74 74 75 75 76 76 76 76 76 75 75 75 75 75 75 74 74 73 73 72 72 72 72 72 72 71 70 65 66 70 74 75 74 74 73 72
71 73 73 72 74 75 75 74 74 75 75 75 76 75 75 75 75 75 75 74 74 74 74 74 73 72 72 72 72 72 72 72 71 69 64 64 64 72 74 73 72 72 72
70 72 70 72 74 74 74 74 74 74 75 75 75 75 74 74 74 75 74 75 74 75 74 74 73 72 71 71 71 71 71 71 69 62 62 66 68 74 74 73 72 71 71
69 70 71 71 73 74 74 74 74 74 74 75 75 74 73 73 73 74 73 73 73 73 72 73 72 71 70 70 70 70 69 69 64 61 62 64 68 74 74 73 72 71 71
69 70 70 68 70 72 73 73 73 73 74 74 74 73 72 73 73 73 72 73 72 72 72 72 71 70 70 70 69 68 67 66 64 62 63 65 71 73 73 72 71 70 69
70 69 69 68 69 68 69 70 71 72 72 73 73 72 71 71 71 71 71 72 72 72 71 71 70 70 70 70 68 65 64 63 60 62 66 65 71 73 72 71 70 69 68
68 68 67 67 67 68 69 66 68 69 70 70 70 68 67 67 68 68 67 70 71 71 70 70 69 70 70 68 66 64 63 62 59 62 66 68 71 72 71 70 69 68 68
66 66 67 67 67 67 67 66 66 66 67 67 66 64 63 63 64 64 64 67 69 69 70 69 69 68 66 65 63 62 61 58 60 64 66 68 70 70 70 69 68 68 67
63 65 66 66 67 69 69 67 69 69 69 67 63 63 63 62 62 64 61 64 66 66 68 69 67 65 62 59 59 60 57 57 58 61 61 67 70 70 69 68 67 67 66
65 66 67 67 67 69 68 68 67 68 67 66 64 62 61 62 59 60 59 61 61 61 62 62 60 59 58 58 57 56 55 54 56 59 61 66 69 69 69 68 67 66 65
64 66 67 67 68 69 69 67 67 66 66 65 64 61 59 58 57 58 58 59 59 61 59 58 57 57 57 57 56 54 53 53 55 57 58 61 66 68 68 67 67 66 65
63 64 65 67 69 69 66 67 67 67 65 65 64 62 62 59 59 59 59 60 61 60 59 56 57 56 55 54 55 53 52 52 53 55 56 58 62 65 66 66 66 65 64
65 64 65 66 67 68 67 66 67 67 66 66 65 63 62 62 61 60 60 62 60 60 58 57 56 53 51 52 52 52 51 50 51 53 54 55 59 61 63 63 63 63 63
67 65 65 66 66 66 67 67 67 67 67 66 66 65 63 64 61 61 60 60 61 60 59 57 54 52 50 52 50 51 51 50 49 49 50 50 52 56 58 60 60 60 61
68 64 65 68 66 65 65 66 66 67 67 67 66 66 64 64 63 62 61 61 61 60 59 55 52 49 47 48 48 49 51 50 50 50 49 48 47 47 52 55 56 57 57
69 68 64 66 66 66 66 67 67 68 66 66 66 64 61 61 63 61 61 60 60 58 56 54 49 49 46 46 50 50 50 49 49 50 47 46 45 43 40 50 51 52 53
68 69 66 66 66 66 65 64 65 65 62 62 61 59 60 58 60 61 59 58 57 56 52 50 48 47 49 50 52 50 49 49 48 46 44 45 43 42 39 38 36 42 49
66 67 66 66 66 66 63 60 59 61 54 52 53 56 57 57 56 58 57 56 54 54 50 50 49 48 47 50 47 47 47 48 46 45 44 42 41 41 39 37 36 35 36
64 66 66 66 65 67 65 63 60 54 49 49 50 50 52 52 54 54 54 52 51 50 49 49 50 46 47 48 46 45 40 42 44 45 43 42 40 40 37 37 36 35 32
63 64 66 66 65 67 66 58 53 52 50 48 47 47 47 49 49 50 49 49 46 47 47 48 48 48 45 45 47 45 40 38 39 42 41 41 38 37 35 36 36 35 33
63 63 66 66 65 66 64 59 56 57 52 48 47 45 44 47 47 47 46 45 45 45 46 46 48 48 47 41 42 44 40 41 37 34 38 38 39 38 35 36 36 35 33
62 61 62 64 65 66 61 59 58 59 53 47 44 41 42 43 44 45 45 44 44 44 43 44 43 42 42 40 40 39 38 37 38 37 34 34 37 37 37 35 34 33 34
61 60 61 61 62 64 61 59 60 54 47 43 40 39 39 40 41 42 43 42 42 41 40 40 39 39 37 36 36 35 36 35 35 35 34 34 33 35 35 34 33 33 33